User: anonymous   Login
Location: Nelson
(41.2830°S, 173.2830°E)
Time: 12:41:22
(UTC+12:00)
Language:

Radarsat Rocket - Orbit

View from above orbital plane
View from above orbital plane
View from above satellite
View from above satellite

Ground track
Ground track

The orbit data is extracted from the following two-line orbital elements,

1 23711U 95059B   21217.44465087 -.00000016  00000-0  54676-4 0  9993
2 23711 100.6251 227.0705 0368278 150.5294 314.4252 13.12728216233770
Epoch (UTC): 05 August 2021 10:40:17
Eccentricity: 0.0368278
inclination: 100.6251°
perigee height: 933 km
apogee height: 1492 km
right ascension of ascending node: 227.0705°
argument of perigee: 150.5294°
revolutions per day: 13.12728216
mean anomaly at epoch: 314.4252°
orbit number at epoch: 23377

The dashed part of the orbit path shows where the satellite is in the earth's shadow,  

DLR